This is the latest recevied weather packets stored in our database for station/object K1AWR. If no packets are shown the sender has not sent any weather packets the latest 10 day(s).
| Time | Temp. | Humidity | Pressure | Rain* | Wind** | Luminosity | Snow |
|---|---|---|---|---|---|---|---|
| 1778170420 | 14.44° C | 37% | 1009.9 hPa | 0 mm | - | 775 W/m² | - |
| 1778170117 | 15° C | 39% | 1010.1 hPa | 0 mm | - | 786 W/m² | - |
| 1778169813 | 14.44° C | 37% | 1010.2 hPa | 0 mm | - | 734 W/m² | - |
| 1778169509 | 14.44° C | 37% | 1010.1 hPa | 0 mm | - | 774 W/m² | - |
| 1778169205 | 13.89° C | 36% | 1010.2 hPa | 0 mm | - | 770 W/m² | - |
| 1778168902 | 14.44° C | 36% | 1010.3 hPa | 0 mm | - | 595 W/m² | - |
| 1778168599 | 13.89° C | 38% | 1010.3 hPa | 0 mm | - | 632 W/m² | - |
| 1778168296 | 13.89° C | 41% | 1010.3 hPa | 0 mm | - | 460 W/m² | - |
| 1778167992 | 13.89° C | 41% | 1010.3 hPa | 0 mm | - | 172 W/m² | - |
| 1778167689 | 13.89° C | 39% | 1010.3 hPa | 0 mm | - | 283 W/m² | - |
| 1778167385 | 13.33° C | 39% | 1010.3 hPa | 0 mm | - | 133 W/m² | - |
| 1778167081 | 12.78° C | 39% | 1010.4 hPa | 0 mm | - | 98 W/m² | - |
| 1778166777 | 12.78° C | 38% | 1010.6 hPa | 0 mm | - | 47 W/m² | - |
| 1778166475 | 13.33° C | 42% | 1010.6 hPa | 0 mm | - | 47 W/m² | - |
| 1778166171 | 12.78° C | 40% | 1010.6 hPa | 0 mm | - | 206 W/m² | - |
| 1778165867 | 12.78° C | 38% | 1010.6 hPa | 0 mm | - | 481 W/m² | - |
| 1778165564 | 12.78° C | 39% | 1010.5 hPa | 0 mm | - | 288 W/m² | - |
| 1778165261 | 12.78° C | 39% | 1010.6 hPa | 0 mm | - | 272 W/m² | - |
| 1778164959 | 12.78° C | 41% | 1010.6 hPa | 0 mm | - | 190 W/m² | - |
| 1778164655 | 12.78° C | 42% | 1010.6 hPa | 0 mm | - | 279 W/m² | - |
| 1778164352 | 12.78° C | 39% | 1010.7 hPa | 0 mm | - | 204 W/m² | - |
| 1778164048 | 12.78° C | 39% | 1010.8 hPa | 0 mm | - | 125 W/m² | - |
| 1778163745 | 12.78° C | 43% | 1010.7 hPa | 0 mm | - | 115 W/m² | - |
| 1778163441 | 12.22° C | 40% | 1010.6 hPa | 0 mm | - | 143 W/m² | - |
| 1778163139 | 12.78° C | 40% | 1010.7 hPa | 0 mm | - | 220 W/m² | - |
* Rain latest hour (hover to see other rain measurements)
** Current wind speed in m/s (hover to see current wind gust speed)